Back to catalog

COSMOS 2251 DEB

AliveLEO
NORAD 34409·DEBRIS·🇷🇺 Russia

Launched Jun 16, 1993 from Plesetsk Cosmodrome

Loading…

Next Passes (next 24 hours)

TLE

FreshSource: Space-Track

Epoch: Sep 14, 2026, 03:22 UTC

1 34409U 93036RA  26257.14032453  .00000448  00000-0  98736-4 0  9998
2 34409  74.0631 143.5638 0079397 148.0813   3.7058 14.58476816932077

Track COSMOS 2251 DEB in real time with AllMySat

Download on the App Store